Location: Newark
(44.9333°N, 0.5667°E)
Time: 21:17:13
(UTC+00:00)

Oscar 11 - Pass Details

Date: 02 March 2020
Orbit: 612 x 626 km, 97.6° (Epoch: 09 April)

Event Time Altitude Azimuth Distance (km) Brightness Sun altitude
Rises 05:50:48 0° 28° (NNE) 2,903 10.9 -8.3°
Reaches altitude 10° 05:53:38 10° 48° (NE) 1,989 10.4 -7.8°
Maximum altitude 05:56:36 18° 91° (E) 1,524 10.5 -7.3°
Drops below altitude 10° 05:59:33 10° 135° (SE) 1,972 10.4 -6.8°
Sets 06:02:20 0° 154° (SSE) 2,869 10.9 -6.3°
